Stations météo

réclame
Mon MeteoGroup
Hawarden, Grande-Bretagne (3321): Température de l'air & dewpoint: 14.09.2018 17:00:00 - 20.09.2018 17:00:00 (BST)Hawarden, Grande-Bretagne (3321): Température de l'air -20cm & Température de l'air -100cm: 14.09.2018 17:00:00 - 20.09.2018 17:00:00 (BST)Hawarden, Grande-Bretagne (3321): Vitesse du vent & gusts: 14.09.2018 17:00:00 - 20.09.2018 17:00:00 (BST)Hawarden, Grande-Bretagne (3321): Direction du vent: 14.09.2018 17:00:00 - 20.09.2018 17:00:00 (BST)Hawarden, Grande-Bretagne (3321): reduced air pressure: 14.09.2018 17:00:00 - 20.09.2018 17:00:00 (BST)Hawarden, Grande-Bretagne (3321): visibility: 14.09.2018 17:00:00 - 20.09.2018 17:00:00 (BST)Hawarden, Grande-Bretagne (3321): Ensoleillement: 14.09.2018 17:00:00 - 20.09.2018 17:00:00 (BST)Hawarden, Grande-Bretagne (3321): Quantités de précipitations: 14.09.2018 17:00:00 - 20.09.2018 17:00:00 (BST)
Date & Time tt [°C] td [°C] tt -20cm [°C] tt -100cm [°C] ff [km/h] ff [knt] fx [km/h] fx [knt] dd ppp [hPa] vv [km] sd [min] rr [mm]
20.09.2018 17:00:00 11,2 10,7 - - 8 4 - - NE 1000,0 6 0 6,6
20.09.2018 16:00:00 11,7 11,3 - - 11 6 - - N 1001,6 6 0 4,2
20.09.2018 15:00:00 11,9 11,5 - - 9 5 - - ENE 1003,5 4,0 0 6,2
20.09.2018 14:00:00 12,0 11,1 - - 8 4 - - E 1005,3 8 0 3,8
20.09.2018 13:00:00 12,1 10,7 - - 8 4 - - SE 1007,2 9 0 2,0
20.09.2018 12:00:00 12,7 9,9 - - 11 6 - - SSE 1008,1 10 0 0,0
20.09.2018 11:00:00 12,9 8,9 - - 11 6 - - SSE 1009,1 10 0 0,0
20.09.2018 10:00:00 12,7 9,4 15,0 15,2 13 7 - - S 1009,8 10 0 0,0
20.09.2018 09:00:00 12,2 9,0 - - 11 6 - - SSE 1010,0 10 0 0,0
20.09.2018 08:00:00 12,0 8,5 - - 15 8 - - SSE 1009,8 10 0 0,0
20.09.2018 07:00:00 11,3 8,7 - - 16 9 - - SSW 1009,9 10 0 0,0
20.09.2018 06:00:00 11,3 9,0 - - 13 7 - - SSW 1010,3 10 0 0,0
20.09.2018 05:00:00 11,8 8,6 - - 15 8 - - S 1010,1 45 0 0,0
20.09.2018 04:00:00 11,4 9,0 - - 11 6 - - S 1010,3 30 0 0,0
20.09.2018 03:00:00 11,8 8,4 - - 15 8 - - SSE 1010,6 28 0 0,0
20.09.2018 02:00:00 12,0 8,2 - - 8 4 - - SSE 1010,6 12 0 0,0
20.09.2018 01:00:00 12,5 7,4 - - 5 3 - - SSW 1010,7 27 - 0,0
20.09.2018 00:00:00 12,8 8,1 - - 11 6 - - SSW 1010,8 24 0 0,0
19.09.2018 23:00:00 12,9 8,6 - - 13 7 - - S 1010,5 23 0 0,0
19.09.2018 22:00:00 13,3 7,5 - - 18 10 - - SW 1010,6 10 0 0,0
19.09.2018 21:00:00 13,2 6,2 - - 21 11 - - SSW 1010,2 10 0 0,0
19.09.2018 20:00:00 14,0 7,3 - - 28 15 - - SW 1009,6 10 0 0,0
19.09.2018 19:00:00 14,4 7,5 - - 26 14 - - SW 1009,2 10 0 0,0
19.09.2018 18:00:00 15,4 7,6 - - 28 15 - - SW 1008,6 10 6 0,0
19.09.2018 17:00:00 16,0 7,5 - - 34 18 46 25 SW 1008,0 10 12 0,0
19.09.2018 16:00:00 16,7 7,7 - - 31 17 61 33 WSW 1007,0 10 30 0,0
19.09.2018 15:00:00 17,9 7,3 - - 42 23 67 36 WSW 1005,8 10 42 0,0
19.09.2018 14:00:00 18,3 9,1 - - 54 29 85 46 SW 1004,0 10 18 0,0
19.09.2018 13:00:00 18,6 13,9 - - 50 27 74 40 SW 1002,1 7 6 0,0
19.09.2018 12:00:00 19,5 12,9 - - 44 24 80 43 SSW 1001,1 10 0 0,0
19.09.2018 11:00:00 19,6 11,8 - - 34 18 52 28 S 1001,4 10 18 0,0
19.09.2018 10:00:00 18,0 11,6 15,7 15,2 24 13 48 26 S 1002,7 10 0 0,0
19.09.2018 09:00:00 16,0 12,6 - - 29 16 - - SSE 1003,0 10 0 0,0
19.09.2018 08:00:00 15,2 12,3 - - 29 16 - - SSE 1003,7 10 0 0,0
19.09.2018 07:00:00 14,3 12,2 - - 22 12 - - SSE 1004,1 10 0 0,0
19.09.2018 06:00:00 13,4 11,9 - - 15 8 - - SSE 1005,8 18 0 0,0
19.09.2018 05:00:00 12,8 11,1 - - 13 7 - - SSE 1006,3 19 0 0,0
19.09.2018 04:00:00 13,2 11,6 - - 9 5 - - ESE 1006,7 21 0 0,0
19.09.2018 03:00:00 15,1 11,3 - - 16 9 - - S 1006,8 28 0 0,0
19.09.2018 02:00:00 15,6 12,5 - - 16 9 - - S 1006,7 30 0 0,0
19.09.2018 01:00:00 15,0 13,3 - - 4 2 - - SSW 1006,7 25 - 0,0
19.09.2018 00:00:00 15,1 13,5 - - 18 10 - - SSE 1006,4 35 0 0,0
18.09.2018 23:00:00 15,5 13,9 - - 9 5 - - SE 1006,5 30 0 0,0
18.09.2018 22:00:00 15,7 13,9 - - 15 8 - - SE 1006,0 45 0 0,0
18.09.2018 21:00:00 16,1 14,9 - - 13 7 - - SSE 1005,6 10 0 1,0
18.09.2018 20:00:00 16,4 15,0 - - 16 9 - - SSW 1005,9 7 0 1,2
18.09.2018 19:00:00 18,8 13,5 - - 26 14 - - SSW 1005,3 10 0 0,0
18.09.2018 18:00:00 19,8 13,0 - - 24 13 46 25 SSW 1005,2 10 48 0,0
18.09.2018 17:00:00 20,3 14,0 - - 29 16 54 29 SW 1005,0 10 60 0,0
18.09.2018 16:00:00 20,7 13,4 - - 39 21 57 31 SW 1004,8 10 60 0,0
18.09.2018 15:00:00 21,6 14,7 - - 26 14 - - SW 1004,8 10 12 0,0
18.09.2018 14:00:00 19,3 14,9 - - 18 10 46 25 SW 1004,4 10 6 0,0
18.09.2018 13:00:00 18,7 12,8 - - 41 22 67 36 WSW 1004,0 10 60 0,0
18.09.2018 12:00:00 18,3 12,2 - - 55 30 72 39 WSW 1002,5 10 48 0,0
18.09.2018 11:00:00 18,4 13,6 - - 57 31 65 35 WSW 1001,1 10 36 0,0
18.09.2018 10:00:00 18,7 14,9 15,2 15,0 52 28 61 33 SW 999,7 10 0 0,0
18.09.2018 09:00:00 18,8 15,3 - - 41 22 52 28 SW 998,3 10 6 0,0
18.09.2018 08:00:00 18,6 15,5 - - 42 23 52 28 SW 996,8 10 0 0,0
18.09.2018 07:00:00 17,2 16,1 - - 28 15 - - S 995,2 10 0 0,2
18.09.2018 06:00:00 16,8 16,2 - - 22 12 - - SSE 994,8 7 0 0,4
18.09.2018 05:00:00 16,0 15,1 - - 24 13 - - SSE 995,6 5 0 0,4
18.09.2018 04:00:00 16,3 13,3 - - 16 9 - - SE 997,3 20 0 0,0
18.09.2018 03:00:00 15,0 12,3 - - 15 8 - - SSE 998,7 17 0 0,0
18.09.2018 02:00:00 14,2 12,0 - - 13 7 - - S 1000,4 29 0 0,0
18.09.2018 01:00:00 13,4 11,7 - - 15 8 - - SSE 1001,6 28 - 0,0
18.09.2018 00:00:00 11,9 10,7 - - 5 3 - - SE 1002,7 27 0 0,0
17.09.2018 23:00:00 13,8 11,7 - - 2 1 - - NW 1003,5 13 0 0,0
17.09.2018 22:00:00 15,8 12,8 - - 11 6 - - ESE 1004,4 45 0 0,0
17.09.2018 21:00:00 17,0 13,8 - - 15 8 - - SSE 1005,3 10 0 0,0
17.09.2018 20:00:00 18,4 14,2 - - 18 10 - - SSE 1005,5 10 0 0,0
17.09.2018 19:00:00 20,3 14,4 - - 15 8 - - SSE 1005,7 10 12 0,0
17.09.2018 18:00:00 21,0 15,6 - - 13 7 - - S 1006,3 10 0 0,0
17.09.2018 17:00:00 21,4 15,0 - - 24 13 - - S 1006,9 10 0 0,0
17.09.2018 16:00:00 21,5 15,4 - - 18 10 - - S 1007,8 10 0 0,0
17.09.2018 15:00:00 21,6 16,8 - - 28 15 - - S 1008,6 10 6 0,0
17.09.2018 14:00:00 20,9 16,5 - - 22 12 - - S 1009,2 10 0 0,0
17.09.2018 13:00:00 22,5 16,0 - - 24 13 - - S 1009,6 10 12 0,0
17.09.2018 12:00:00 20,5 16,3 - - 15 8 - - S 1010,5 10 6 0,0
17.09.2018 11:00:00 17,7 15,6 - - 11 6 - - SE 1011,3 10 6 0,0
17.09.2018 10:00:00 15,0 14,1 14,7 15,0 11 6 - - SE 1011,9 10 0 0,0
17.09.2018 09:00:00 12,3 12,1 - - 9 5 - - SSE 1012,3 10 0 0,0
17.09.2018 08:00:00 9,9 9,8 - - 8 4 - - S 1013,0 10 0 0,0
17.09.2018 07:00:00 7,4 7,2 - - 2 1 - - - 1013,4 10 0 0,0
17.09.2018 06:00:00 7,6 7,2 - - 5 3 - - S 1013,7 3,5 0 0,0
17.09.2018 05:00:00 8,2 7,5 - - 8 4 - - SE 1013,9 22 0 0,0
17.09.2018 04:00:00 9,5 8,4 - - 5 3 - - SSE 1014,3 26 0 0,0
17.09.2018 03:00:00 11,0 9,6 - - 11 6 - - S 1014,6 45 0 0,0
17.09.2018 02:00:00 13,2 10,1 - - 15 8 - - SW 1015,0 35 0 0,0
17.09.2018 01:00:00 11,7 10,3 - - 13 7 - - SW 1015,4 35 - -
17.09.2018 00:00:00 10,8 10,1 - - 4 2 - - SSE 1015,4 27 0 0,0
16.09.2018 23:00:00 11,1 10,2 - - 2 1 - - SW 1015,3 24 0 0,0
16.09.2018 22:00:00 11,9 10,5 - - 8 4 - - WSW 1015,5 40 0 0,0
16.09.2018 21:00:00 13,6 10,5 - - 4 2 - - WNW 1015,1 35 0 0,0
16.09.2018 20:00:00 16,0 11,9 - - 9 5 - - NW 1015,2 45 0 0,0
16.09.2018 19:00:00 16,5 12,5 - - 4 2 - - - 1014,4 10 0 0,0
16.09.2018 18:00:00 17,2 12,6 - - 5 3 - - N 1014,2 10 12 0,0
16.09.2018 17:00:00 17,3 12,7 - - 9 5 - - N 1014,0 10 30 0,0
16.09.2018 16:00:00 16,3 13,2 - - 15 8 - - NNW 1014,6 10 0 0,0
16.09.2018 15:00:00 16,8 14,0 - - 11 6 - - NNW 1014,1 10 6 0,0
16.09.2018 14:00:00 16,4 14,4 - - 9 5 - - N 1013,7 10 0 0,0
16.09.2018 13:00:00 15,4 13,8 - - 18 10 - - NW 1013,7 8 0 0,4
16.09.2018 12:00:00 19,0 15,6 - - 9 5 - - NNW 1013,4 10 0 0,0
16.09.2018 11:00:00 18,5 15,1 - - 22 12 - - S 1012,7 10 18 0,0
16.09.2018 10:00:00 17,6 15,2 15,0 15,2 13 7 - - SSE 1012,9 10 12 0,0
16.09.2018 09:00:00 15,7 13,7 - - 22 12 - - SSW 1012,8 10 0 0,0
16.09.2018 08:00:00 15,8 12,6 - - 26 14 - - S 1012,8 15 0 0,0
16.09.2018 07:00:00 15,6 11,8 - - 24 13 - - S 1013,1 30 0 0,0
16.09.2018 06:00:00 15,3 11,0 - - 16 9 - - S 1013,2 45 0 0,0
16.09.2018 05:00:00 15,4 10,5 - - 18 10 - - S 1013,5 40 0 0,0
16.09.2018 04:00:00 15,3 10,2 - - 21 11 - - S 1014,0 40 0 0,0
16.09.2018 03:00:00 14,0 10,9 - - 11 6 - - SSE 1015,3 40 0 0,0
16.09.2018 02:00:00 14,6 11,3 - - 21 11 - - S 1015,9 30 0 0,0
16.09.2018 01:00:00 14,4 10,9 - - 22 12 - - S 1017,3 35 - 0,0
16.09.2018 00:00:00 14,3 10,5 - - 22 12 - - SSE 1017,9 45 0 0,0
15.09.2018 23:00:00 14,6 10,5 - - 21 11 - - SSE 1018,8 40 0 0,0
15.09.2018 22:00:00 14,9 11,1 - - 15 8 - - S 1019,5 35 0 0,0
15.09.2018 21:00:00 14,7 10,3 - - 8 4 - - SSE 1019,9 30 0 0,0
15.09.2018 20:00:00 14,4 9,8 - - 4 2 - - S 1020,4 40 0 0,0
15.09.2018 19:00:00 15,8 9,8 - - 15 8 - - WSW 1020,8 10 0 0,0
15.09.2018 18:00:00 16,5 10,8 - - 18 10 - - SW 1020,8 10 0 0,0
15.09.2018 17:00:00 17,0 10,8 - - 22 12 - - SW 1021,0 10 0 0,0
15.09.2018 16:00:00 16,6 11,4 - - 16 9 - - SW 1021,2 10 0 0,0
15.09.2018 15:00:00 17,0 10,9 - - 21 11 - - SSW 1021,5 10 0 0,0
15.09.2018 14:00:00 18,2 10,1 - - 16 9 - - W 1021,6 10 0 0,0
15.09.2018 13:00:00 18,3 9,6 - - 18 10 - - WSW 1021,8 10 18 0,0
15.09.2018 12:00:00 17,6 11,4 - - 11 6 - - SSW 1022,0 10 12 0,0
15.09.2018 11:00:00 16,8 11,0 - - 16 9 - - SW 1022,0 10 48 0,0
15.09.2018 10:00:00 15,8 10,4 14,7 15,2 18 10 - - WSW 1021,9 10 18 0,0
15.09.2018 09:00:00 13,9 11,4 - - 18 10 - - SSW 1021,4 10 0 0,0
15.09.2018 08:00:00 11,2 10,3 - - 13 7 - - S 1021,2 10 30 0,0
15.09.2018 07:00:00 8,9 8,0 - - 5 3 - - SSE 1020,8 24 0 0,0
15.09.2018 06:00:00 10,0 8,4 - - 2 1 - - SSE 1020,5 35 0 0,0
15.09.2018 05:00:00 10,2 8,7 - - 5 3 - - SE 1020,4 35 0 0,0
15.09.2018 04:00:00 10,9 8,9 - - 5 3 - - SSE 1020,4 35 0 0,0
15.09.2018 03:00:00 12,4 9,7 - - 5 3 - - W 1020,5 50 0 0,0
15.09.2018 02:00:00 10,8 9,4 - - 5 3 - - SSE 1020,4 40 0 0,0
15.09.2018 01:00:00 9,1 7,1 - - 4 2 - - SSE 1020,4 40 - 0,0
15.09.2018 00:00:00 9,8 7,7 - - 4 2 - - SSW 1020,2 40 0 0,0
14.09.2018 23:00:00 12,0 9,2 - - 5 3 - - WSW 1019,9 50 0 0,0
14.09.2018 22:00:00 12,2 9,4 - - 9 5 - - WSW 1019,4 45 0 0,0
14.09.2018 21:00:00 12,2 9,2 - - 5 3 - - - 1018,9 10 0 0,0
14.09.2018 20:00:00 12,3 8,7 - - 9 5 - - SSW 1018,6 10 0 0,0
14.09.2018 19:00:00 15,2 8,7 - - 11 6 - - WNW 1017,9 10 24 0,0
14.09.2018 18:00:00 15,6 10,1 - - 16 9 - - WNW 1017,6 10 0 0,0
14.09.2018 17:00:00 15,2 12,3 - - 2 1 - - - 1017,2 10 0 0,2

tt = Température de l'air
td = dewpoint
tt -20cm = Température de l'air -20cm
tt -100cm = Température de l'air -100cm
ff = Vitesse du vent
fx = gusts
dd = Direction du vent
ppp = reduced air pressure
vv = visibility
sd = Ensoleillement
rr = Quantités de précipitations

stations d'obs. à proximité